Weather reports worldwide

Advertisment
Cordoba Aeropuerto (AWS), Spain (8410): temperature & dewpoint: 19.03.2019 18:00:00 - 25.03.2019 18:00:00 (CET)Cordoba Aeropuerto (AWS), Spain (8410): wind speed: 19.03.2019 18:00:00 - 25.03.2019 18:00:00 (CET)Cordoba Aeropuerto (AWS), Spain (8410): wind direction: 19.03.2019 18:00:00 - 25.03.2019 18:00:00 (CET)Cordoba Aeropuerto (AWS), Spain (8410): reduced air pressure: 19.03.2019 18:00:00 - 25.03.2019 18:00:00 (CET)Cordoba Aeropuerto (AWS), Spain (8410): visibility: 19.03.2019 18:00:00 - 25.03.2019 18:00:00 (CET)
Date & Time tt [°C] td [°C] ff [km/h] ff [kn] dd ppp [hPa] vv [km]
25.03.2019 18:00:00 - - - - - - -
25.03.2019 17:00:00 25,6 2,3 18 10 ENE 1013,1 -
25.03.2019 16:00:00 25,9 2,5 18 10 E 1013,9 35
25.03.2019 15:00:00 25,2 2,6 16 9 NE 1015,1 -
25.03.2019 14:00:00 24,5 2,6 15 8 ENE 1016,3 -
25.03.2019 13:00:00 23,1 3,1 22 12 NE 1017,5 30
25.03.2019 12:00:00 - - - - - - -
25.03.2019 11:00:00 - - - - - - -
25.03.2019 10:00:00 - - - - - - -
25.03.2019 09:00:00 - - - - - - -
25.03.2019 08:00:00 - - - - - - -
25.03.2019 07:00:00 - - - - - - -
25.03.2019 06:00:00 - - - - - - -
25.03.2019 05:00:00 - - - - - - -
25.03.2019 04:00:00 7,6 5,7 2 1 NW 1020,0 -
25.03.2019 03:00:00 8,8 6,4 8 4 S 1019,9 -
25.03.2019 02:00:00 10,2 6,7 4 2 SSE 1020,1 -
25.03.2019 01:00:00 12,3 8,0 4 2 NNE 1020,6 -
25.03.2019 00:00:00 11,9 8,2 9 5 S 1020,5 -
24.03.2019 23:00:00 11,5 7,0 5 3 WSW 1020,5 -
24.03.2019 22:00:00 13,1 7,1 9 5 S 1020,5 -
24.03.2019 21:00:00 14,2 6,5 5 3 W 1020,0 -
24.03.2019 20:00:00 16,4 6,8 5 3 SSW 1019,4 -
24.03.2019 19:00:00 19,4 5,1 8 4 E 1018,9 -
24.03.2019 18:00:00 20,4 4,6 11 6 E 1018,9 -
24.03.2019 17:00:00 20,6 4,2 21 11 ENE 1018,7 -
24.03.2019 16:00:00 23,3 5,0 15 8 ENE 1018,6 30
24.03.2019 15:00:00 23,6 5,1 16 9 ESE 1019,2 -
24.03.2019 14:00:00 21,8 5,3 16 9 E 1019,9 -
24.03.2019 13:00:00 21,7 4,3 22 12 E 1020,6 30
24.03.2019 12:00:00 20,9 4,6 22 12 ENE 1020,9 -
24.03.2019 11:00:00 19,4 5,3 22 12 ENE 1021,1 -
24.03.2019 10:00:00 17,0 5,1 26 14 ENE 1020,9 25
24.03.2019 09:00:00 14,3 6,1 13 7 ENE 1020,7 -
24.03.2019 08:00:00 11,7 6,4 13 7 ENE 1020,7 -
24.03.2019 07:00:00 11,5 6,0 11 6 ENE 1020,3 -
24.03.2019 06:00:00 11,8 6,1 11 6 E 1020,4 -
24.03.2019 05:00:00 11,1 6,2 13 7 E 1020,3 -
24.03.2019 04:00:00 8,7 5,5 5 3 E 1020,6 -
24.03.2019 03:00:00 8,6 4,8 9 5 ENE 1021,0 -
24.03.2019 02:00:00 9,6 5,0 2 1 SSE 1021,0 -
24.03.2019 01:00:00 10,6 5,4 13 7 ENE 1021,3 -
24.03.2019 00:00:00 11,2 4,5 5 3 E 1021,4 -
23.03.2019 23:00:00 12,7 4,7 9 5 E 1021,5 -
23.03.2019 22:00:00 14,0 4,6 11 6 ENE 1021,5 -
23.03.2019 21:00:00 16,9 4,2 9 5 E 1021,0 -
23.03.2019 20:00:00 18,0 3,1 29 16 ENE 1019,9 -
23.03.2019 19:00:00 19,5 2,4 29 16 ENE 1019,3 -
23.03.2019 18:00:00 21,3 2,0 37 20 ENE 1018,3 -
23.03.2019 17:00:00 23,1 2,0 28 15 NE 1018,1 -
23.03.2019 16:00:00 22,6 1,4 18 10 NE 1018,8 40
23.03.2019 15:00:00 22,7 2,6 16 9 ENE 1019,7 -
23.03.2019 14:00:00 22,7 3,0 18 10 E 1020,6 -
23.03.2019 13:00:00 21,6 3,4 22 12 ENE 1021,7 40
23.03.2019 12:00:00 20,2 3,9 22 12 ENE 1022,5 -
23.03.2019 11:00:00 18,4 3,6 26 14 ENE 1023,1 -
23.03.2019 10:00:00 15,7 4,4 22 12 ENE 1023,9 40
23.03.2019 09:00:00 12,3 5,0 9 5 E 1023,8 -
23.03.2019 08:00:00 8,2 4,4 18 10 ENE 1024,0 -
23.03.2019 07:00:00 5,0 3,3 4 2 ENE 1024,0 -
23.03.2019 06:00:00 4,8 3,1 0 0 N 1024,2 -
23.03.2019 05:00:00 5,4 3,2 8 4 N 1024,1 -
23.03.2019 04:00:00 5,5 3,2 4 2 SSE 1024,4 -
23.03.2019 03:00:00 6,8 4,1 4 2 SSW 1024,9 -
23.03.2019 02:00:00 8,3 5,2 4 2 N 1025,0 -
23.03.2019 01:00:00 8,9 5,0 2 1 SSW 1024,9 -
23.03.2019 00:00:00 9,7 4,7 0 0 N 1025,1 -
22.03.2019 23:00:00 11,6 4,8 8 4 WSW 1024,7 -
22.03.2019 22:00:00 12,8 4,8 8 4 W 1024,0 -
22.03.2019 21:00:00 14,9 4,3 15 8 SSW 1023,0 -
22.03.2019 20:00:00 16,5 0,4 4 2 W 1021,9 -
22.03.2019 19:00:00 21,3 -2,6 4 2 ESE 1021,5 -
22.03.2019 18:00:00 22,0 -4,0 11 6 E 1021,4 -
22.03.2019 17:00:00 21,8 -3,8 11 6 ENE 1021,9 -
22.03.2019 16:00:00 22,3 -3,6 15 8 E 1022,5 40
22.03.2019 15:00:00 21,3 -4,8 18 10 E 1023,0 -
22.03.2019 14:00:00 19,7 -3,9 15 8 NE 1023,9 -
22.03.2019 13:00:00 19,0 -1,9 13 7 ENE 1024,7 40
22.03.2019 12:00:00 17,2 -0,9 16 9 ENE 1025,6 -
22.03.2019 11:00:00 14,8 -0,3 16 9 ENE 1026,3 -
22.03.2019 10:00:00 12,0 1,1 15 8 ENE 1026,7 30
22.03.2019 09:00:00 8,4 3,4 9 5 NNE 1026,6 -
22.03.2019 08:00:00 3,5 1,9 0 0 N 1026,5 -
22.03.2019 07:00:00 3,0 1,4 4 2 ESE 1026,4 -
22.03.2019 06:00:00 3,7 1,9 4 2 ESE 1026,0 -
22.03.2019 05:00:00 4,1 2,1 4 2 ESE 1025,9 -
22.03.2019 04:00:00 4,4 2,3 0 0 N 1026,0 -
22.03.2019 03:00:00 5,4 2,4 4 2 SSW 1026,1 -
22.03.2019 02:00:00 6,5 2,9 2 1 WSW 1026,2 -
22.03.2019 01:00:00 7,7 3,7 4 2 SSW 1026,1 -
22.03.2019 00:00:00 9,4 4,2 2 1 SSW 1026,1 -
21.03.2019 23:00:00 10,7 3,5 4 2 SSW 1025,8 -
21.03.2019 22:00:00 11,7 2,9 8 4 WSW 1025,3 -
21.03.2019 21:00:00 13,6 1,7 9 5 SW 1024,2 -
21.03.2019 20:00:00 14,9 -3,5 4 2 W 1023,1 -
21.03.2019 19:00:00 18,5 -5,6 11 6 E 1022,6 -
21.03.2019 18:00:00 19,9 -5,9 13 7 E 1022,5 -
21.03.2019 17:00:00 20,4 -6,7 18 10 E 1022,7 -
21.03.2019 16:00:00 20,1 -4,4 21 11 ENE 1023,1 50
21.03.2019 15:00:00 19,9 -5,8 26 14 ENE 1023,8 -
21.03.2019 14:00:00 20,0 -3,7 24 13 E 1024,7 -
21.03.2019 13:00:00 18,3 -2,6 26 14 ENE 1025,6 50
21.03.2019 12:00:00 17,3 -2,0 22 12 ENE 1026,3 -
21.03.2019 11:00:00 15,8 0,1 21 11 ENE 1026,9 -
21.03.2019 10:00:00 12,8 3,3 18 10 ENE 1027,3 50
21.03.2019 09:00:00 9,8 5,0 11 6 E 1027,4 -
21.03.2019 08:00:00 4,6 3,3 2 1 SE 1027,2 -
21.03.2019 07:00:00 4,1 2,9 4 2 NNE 1026,4 -
21.03.2019 06:00:00 4,7 3,0 2 1 SSE 1025,9 -
21.03.2019 05:00:00 5,0 3,3 0 0 N 1025,9 -
21.03.2019 04:00:00 5,5 3,3 2 1 S 1025,7 -
21.03.2019 03:00:00 6,3 3,5 2 1 WSW 1026,1 -
21.03.2019 02:00:00 7,4 4,0 0 0 N 1026,2 -
21.03.2019 01:00:00 8,3 4,3 5 3 WSW 1026,2 -
21.03.2019 00:00:00 10,4 4,7 5 3 SSW 1026,1 -
20.03.2019 23:00:00 11,3 4,5 8 4 WNW 1025,9 -
20.03.2019 22:00:00 12,5 4,2 8 4 WSW 1025,6 -
20.03.2019 21:00:00 14,0 3,2 11 6 W 1024,8 -
20.03.2019 20:00:00 14,6 3,6 13 7 SSW 1023,7 -
20.03.2019 19:00:00 17,4 2,2 9 5 S 1023,2 -
20.03.2019 18:00:00 20,8 0,9 5 3 E 1022,5 -
20.03.2019 17:00:00 20,9 0,8 8 4 ESE 1022,6 -
20.03.2019 16:00:00 20,8 -0,1 8 4 NNE 1022,8 50
20.03.2019 15:00:00 20,2 1,0 5 3 E 1023,6 -
20.03.2019 14:00:00 19,2 1,4 9 5 E 1024,5 -
20.03.2019 13:00:00 17,8 2,0 11 6 E 1025,5 50
20.03.2019 12:00:00 16,8 1,5 9 5 E 1026,1 -
20.03.2019 11:00:00 15,3 0,6 13 7 E 1026,4 -
20.03.2019 10:00:00 13,8 1,2 11 6 E 1026,4 50
20.03.2019 09:00:00 9,2 2,3 4 2 NE 1026,3 -
20.03.2019 08:00:00 4,4 0,7 2 1 WSW 1026,1 -
20.03.2019 07:00:00 3,1 0,2 4 2 SSE 1025,2 -
20.03.2019 06:00:00 3,5 1,0 9 5 W 1024,8 -
20.03.2019 05:00:00 4,0 0,7 0 0 N 1024,5 -
20.03.2019 04:00:00 4,3 0,8 4 2 NNW 1024,5 -
20.03.2019 03:00:00 4,7 1,2 5 3 SW 1024,9 -
20.03.2019 02:00:00 5,6 1,3 0 0 N 1025,0 -
20.03.2019 01:00:00 6,3 1,1 5 3 WSW 1024,9 -
20.03.2019 00:00:00 7,4 2,0 9 5 S 1024,7 -
19.03.2019 23:00:00 8,2 1,5 4 2 SW 1024,3 -
19.03.2019 22:00:00 10,3 1,6 4 2 SW 1023,7 -
19.03.2019 21:00:00 13,1 1,4 4 2 SSW 1023,0 -
19.03.2019 20:00:00 15,6 -1,1 11 6 N 1022,3 -
19.03.2019 19:00:00 19,1 -1,4 22 12 NE 1021,6 -
19.03.2019 18:00:00 20,2 -1,6 29 16 NNE 1020,8 -

tt = temperature
td = dewpoint
ff = wind speed
dd = wind direction
ppp = reduced air pressure
vv = visibility

Next stations